| time (UTC) | temp C | wind direction | speed KPH | gust KPH | rain 1hr cm | rain 24hr cm | rain mn cm | humidity % | barometer mb |
| 20260504234540 | 25 | 105 | 0.0 | 4.8 | 0.00 | 0.00 | 0.00 | 35 | 1001.8 |
| 20260504233101 | 25 | 109 | 3.2 | 8.0 | 0.00 | 0.00 | 0.00 | 34 | 1001.7 |
| 20260504231548 | 26 | 79 | 1.6 | 4.8 | 0.00 | 0.00 | 0.00 | 32 | 1001.6 |
| 20260504230053 | 26 | 122 | 1.6 | 6.4 | 0.00 | 0.00 | 0.00 | 29 | 1001.6 |
| 20260504224542 | 27 | 83 | 1.6 | 6.4 | 0.00 | 0.00 | 0.00 | 30 | 1001.6 |
| 20260504223047 | 27 | 105 | 3.2 | 9.7 | 0.00 | 0.00 | 0.00 | 27 | 1001.9 |
| 20260504221546 | 27 | 105 | 3.2 | 9.7 | 0.00 | 0.00 | 0.00 | 27 | 1001.8 |
| 20260504220045 | 27 | 152 | 4.8 | 11.3 | 0.00 | 0.00 | 0.00 | 28 | 1002.0 |
| 20260504214545 | 27 | 122 | 3.2 | 11.3 | 0.00 | 0.00 | 0.00 | 28 | 1002.1 |
| 20260504213037 | 27 | 92 | 3.2 | 12.9 | 0.00 | 0.00 | 0.00 | 26 | 1002.2 |
| 20260504211546 | 27 | 46 | 4.8 | 11.3 | 0.00 | 0.00 | 0.00 | 28 | 1002.3 |
| 20260504210059 | 27 | 154 | 4.8 | 12.9 | 0.00 | 0.00 | 0.00 | 26 | 1002.4 |
| 20260504204549 | 28 | 66 | 3.2 | 8.0 | 0.00 | 0.00 | 0.00 | 25 | 1002.6 |
| 20260504203104 | 28 | 103 | 1.6 | 9.7 | 0.00 | 0.00 | 0.00 | 24 | 1002.7 |
| 20260504201547 | 28 | 127 | 3.2 | 11.3 | 0.00 | 0.00 | 0.00 | 28 | 1002.9 |
| 20260504200045 | 28 | 43 | 3.2 | 6.4 | 0.00 | 0.00 | 0.00 | 24 | 1003.0 |
| 20260504194545 | 27 | 93 | 4.8 | 11.3 | 0.00 | 0.00 | 0.00 | 26 | 1003.2 |
| 20260504193043 | 28 | 106 | 3.2 | 12.9 | 0.00 | 0.00 | 0.00 | 26 | 1003.2 |
| 20260504191543 | 28 | 90 | 4.8 | 11.3 | 0.00 | 0.00 | 0.00 | 24 | 1003.3 |
| 20260504190054 | 27 | 146 | 3.2 | 12.9 | 0.00 | 0.00 | 0.00 | 27 | 1003.5 |
| 20260504184545 | 27 | 82 | 4.8 | 9.7 | 0.00 | 0.00 | 0.00 | 26 | 1003.7 |
| 20260504183045 | 27 | 356 | 3.2 | 11.3 | 0.00 | 0.00 | 0.00 | 24 | 1003.7 |
| 20260504181544 | 28 | 109 | 4.8 | 12.9 | 0.00 | 0.00 | 0.00 | 24 | 1003.7 |
| 20260504180043 | 27 | 21 | 4.8 | 14.5 | 0.00 | 0.00 | 0.00 | 26 | 1003.7 |
| 20260504174539 | 27 | 38 | 4.8 | 14.5 | 0.00 | 0.00 | 0.00 | 28 | 1003.9 |
| 20260504173044 | 25 | 25 | 4.8 | 11.3 | 0.00 | 0.00 | 0.00 | 31 | 1004.0 |
| 20260504171546 | 26 | 11 | 4.8 | 16.1 | 0.00 | 0.00 | 0.00 | 30 | 1004.0 |
| 20260504081559 | 10 | 0 | 0.0 | 1.6 | 0.00 | 0.00 | 0.00 | 74 | 1004.1 |
| 20260504044545 | 16 | 70 | 1.6 | 8.0 | 0.00 | 0.00 | 0.00 | 50 | 1005.8 |
| 20260504043107 | 16 | 39 | 3.2 | 9.7 | 0.00 | 0.00 | 0.00 | 49 | 1006.0 |
| 20260504041539 | 17 | 13 | 3.2 | 9.7 | 0.00 | 0.00 | 0.00 | 47 | 1006.1 |
| 20260504040053 | 16 | 40 | 3.2 | 11.3 | 0.00 | 0.00 | 0.00 | 49 | 1006.4 |
| 20260504034545 | 16 | 337 | 3.2 | 9.7 | 0.00 | 0.00 | 0.00 | 50 | 1006.6 |
| 20260504033048 | 17 | 20 | 3.2 | 6.4 | 0.00 | 0.00 | 0.00 | 49 | 1006.5 |
| 20260504031546 | 17 | 15 | 3.2 | 9.7 | 0.00 | 0.00 | 0.00 | 48 | 1006.5 |
| 20260504030043 | 17 | 325 | 3.2 | 8.0 | 0.00 | 0.00 | 0.00 | 47 | 1006.5 |
| 20260504024550 | 18 | 342 | 3.2 | 11.3 | 0.00 | 0.00 | 0.00 | 46 | 1006.4 |
| 20260504023045 | 20 | 48 | 4.8 | 9.7 | 0.00 | 0.00 | 0.00 | 43 | 1006.4 |
| 20260504021544 | 21 | 12 | 3.2 | 12.9 | 0.00 | 0.00 | 0.00 | 38 | 1006.4 |
| 20260504020046 | 22 | 49 | 3.2 | 8.0 | 0.00 | 0.00 | 0.00 | 36 | 1006.3 |
| 20260504014554 | 22 | 19 | 1.6 | 11.3 | 0.00 | 0.00 | 0.00 | 36 | 1006.7 |
| 20260504013043 | 22 | 359 | 3.2 | 9.7 | 0.00 | 0.00 | 0.00 | 35 | 1005.9 |
| 20260504011540 | 23 | 15 | 1.6 | 9.7 | 0.00 | 0.00 | 0.00 | 33 | 1005.7 |
| 20260504010057 | 24 | 87 | 1.6 | 3.2 | 0.00 | 0.00 | 0.00 | 31 | 1005.8 |
| 20260504004545 | 26 | 337 | 1.6 | 3.2 | 0.00 | 0.00 | 0.00 | 24 | 1005.5 |
| 20260504003044 | 26 | 0 | 1.6 | 6.4 | 0.00 | 0.00 | 0.00 | 21 | 1005.7 |
| 20260504001548 | 27 | 146 | 1.6 | 8.0 | 0.00 | 0.00 | 0.00 | 21 | 1005.6 |
| 20260504000045 | 28 | 225 | 3.2 | 9.7 | 0.00 | 0.00 | 0.00 | 19 | 1005.9 |